Weather History for Houston, TX

Change the Weather History Date:

Monday, October 15, 2007

  Actual Average Record
Temperature  
Mean Temperature 77 °F 72 °F  
Max Temperature 88 °F 82 °F 92 °F (1947)
Min Temperature 65 °F 61 °F 40 °F (1978)
Degree Days  
Heating Degree Days 0 1  
Month to date heating degree days 0 4  
Since 1 July heating degree days 0 5  
Cooling Degree Days 12 7  
Month to date cooling degree days 207 134  
Year to date cooling degree days 3052 2959  
Growing Degree Days 28 (Base 50)    
Moisture  
Dew Point 68 °F    
Average Humidity 74    
Maximum Humidity 93    
Minimum Humidity 55    
Precipitation  
Precipitation 4.87 in 0.20 in 4.87 in (2007)
Month to date precipitation 6.37 2.60  
Year to date precipitation 57.49 38.59  
Snow  
Snow 0.00 in - 0.00 in (2002)
Month to date snowfall  
Since 1 July snowfall  
Since 1 September snowfall  
Snow Depth 0.00 in    
Sea Level Pressure  
Sea Level Pressure 29.86 in    
Wind  
Wind Speed 10 mph (ESE)    
Max Wind Speed 36 mph    
Max Gust Speed 41 mph    
Visibility 10 miles    
Events Rain , Thunderstorm    
T = Trace of Precipitation, MM = Missing Value Source: NWS Daily Summary

Daily Weather History Graph

Daily Weather History Graph

Search for Another Location

Airport:

Trip Planner

Search our weather history database for the weather conditions in past years. The results will help you decide how hot, cold, wet, or windy it might be!

Date:

Astronomy

Oct. 15, 2007 Rise Set
Actual Time 7:22 AM CDT 6:50 PM CDT
Civil Twilight 6:58 AM CDT 7:14 PM CDT
Nautical Twilight 6:30 AM CDT 7:42 PM CDT
Astronomical Twilight 6:03 AM CDT 8:10 PM CDT
Moon 11:27 AM CDT (10/15) 9:29 PM CDT (10/15)
Length of Visible Light 12h 16m
Length of Day
11h 28m
Waxing Crescent, 17% of the Moon is Illuminated
Oct 15
Waxing Crescent
Oct 19
First Quarter
Oct 25
Full
Nov 1
Last Quarter
Nov 9
New

Hourly Weather History & Observations

Time (CDT) Temp. Heat Index Dew Point Humidity Pressure Visibility Wind Dir Wind Speed Gust Speed Precip Events Conditions
12:53 AM 79.0 °F - 70.0 °F 74% 29.87 in 10.0 mi SE 6.9 mph - N/A   Overcast
1:53 AM 79.0 °F - 70.0 °F 74% 29.86 in 10.0 mi SE 4.6 mph - N/A   Mostly Cloudy
2:53 AM 78.1 °F - 70.0 °F 76% 29.85 in 10.0 mi SE 6.9 mph - N/A   Mostly Cloudy
3:53 AM 78.1 °F - 70.0 °F 76% 29.85 in 10.0 mi SSE 6.9 mph - N/A   Mostly Cloudy
4:53 AM 78.1 °F - 70.0 °F 76% 29.84 in 10.0 mi SE 6.9 mph - N/A   Mostly Cloudy
5:53 AM 77.0 °F - 70.0 °F 79% 29.84 in 10.0 mi SE 4.6 mph - N/A   Mostly Cloudy
6:53 AM 78.1 °F - 70.0 °F 76% 29.85 in 10.0 mi SE 5.8 mph - N/A   Mostly Cloudy
7:53 AM 77.0 °F - 70.0 °F 79% 29.85 in 10.0 mi SE 5.8 mph - N/A   Mostly Cloudy
8:53 AM 81.0 °F 84.4 °F 70.0 °F 69% 29.85 in 10.0 mi SE 10.4 mph - N/A   Scattered Clouds
9:53 AM 84.0 °F 89.0 °F 71.1 °F 65% 29.87 in 10.0 mi South 9.2 mph - N/A   Scattered Clouds
10:53 AM 84.0 °F 89.6 °F 72.0 °F 67% 29.87 in 10.0 mi SSE 9.2 mph - N/A   Mostly Cloudy
11:53 AM 86.0 °F 92.2 °F 72.0 °F 63% 29.87 in 10.0 mi SSE 11.5 mph 19.6 mph N/A   Mostly Cloudy
12:53 PM 87.1 °F 94.5 °F 73.0 °F 63% 29.86 in 10.0 mi SSE 11.5 mph 20.7 mph N/A   Mostly Cloudy
1:53 PM 86.0 °F 92.2 °F 72.0 °F 63% 29.82 in 10.0 mi SSE 15.0 mph 23.0 mph N/A   Mostly Cloudy
2:53 PM 88.0 °F 93.8 °F 71.1 °F 57% 29.79 in 10.0 mi South 16.1 mph 23.0 mph 0.00 in   Mostly Cloudy
3:53 PM 84.9 °F 89.4 °F 70.0 °F 61% 29.82 in 10.0 mi South 8.1 mph - N/A   Mostly Cloudy
4:32 PM 73.4 °F - 64.4 °F 73% 29.84 in 10.0 mi NNE 16.1 mph 29.9 mph N/A   Mostly Cloudy
4:53 PM 73.0 °F - 66.9 °F 81% 29.86 in 10.0 mi North 13.8 mph - 0.01 in Rain Light Rain
5:12 PM 71.6 °F - 68.0 °F 88% 29.84 in 10.0 mi NNE 13.8 mph 23.0 mph 0.01 in Rain Light Rain
5:53 PM 70.0 °F - 66.9 °F 90% 29.87 in 10.0 mi NNE 16.1 mph 21.9 mph 0.02 in   Mostly Cloudy
6:44 PM 69.8 °F - 64.4 °F 83% 29.86 in 10.0 mi NE 17.3 mph - N/A   Mostly Cloudy
6:53 PM 69.1 °F - 64.9 °F 87% 29.88 in 10.0 mi NE 13.8 mph - N/A   Mostly Cloudy
7:40 PM 69.8 °F - 64.4 °F 83% 29.88 in 10.0 mi NNE 13.8 mph - N/A Thunderstorm Thunderstorm
7:53 PM 68.0 °F - 64.0 °F 87% 29.91 in 10.0 mi North 18.4 mph 24.2 mph 0.00 in Rain , Thunderstorm Light Thunderstorms and Rain
8:32 PM 68.0 °F - 64.4 °F 88% 29.89 in 10.0 mi NE 9.2 mph - 0.01 in   Overcast
8:53 PM 68.0 °F - 64.0 °F 87% 29.91 in 10.0 mi NNE 13.8 mph 23.0 mph 0.01 in Rain Light Rain
9:53 PM 68.0 °F - 64.9 °F 90% 29.91 in 9.0 mi NE 10.4 mph - 0.04 in Rain Light Rain
10:27 PM 68.0 °F - 64.4 °F 88% 29.92 in 10.0 mi Calm Calm - 0.00 in Thunderstorm Thunderstorm
10:53 PM 69.1 °F - 64.9 °F 87% 29.87 in 5.0 mi East 13.8 mph - 0.06 in Rain , Thunderstorm Heavy Thunderstorms and Rain
11:21 PM 69.8 °F - 66.2 °F 88% 29.90 in 10.0 mi Calm Calm - 0.01 in Thunderstorm Thunderstorm
11:53 PM 70.0 °F - 66.9 °F 90% 29.91 in 9.0 mi NNW 3.5 mph - 0.02 in Rain , Thunderstorm Light Thunderstorms and Rain